Location: Unspecified
(42.0334°N, 93.6656°W)
Time: 20:48:44
(UTC-05:00)

Amateur Radio Satellites - All Passes

Search period start: 18 April 2014 20:18
Search period end: 19 April 2014 20:18
Location: Unspecified, 42.0334°N, 93.6656°W

Satellite Date Start Highest point End Downlink Frequencies (MHz)
Time Altitude Azimuth
JAS-2 18 Apr 20:21:53 20:27:18 36° 262° (W) 20:32:16 435.800 - 435.900 CW/SSB, 435.910 FM
HO-68 18 Apr 20:24:45 20:30:55 33° 61° (ENE) 20:37:07 435.675 MHz FM
ISS 18 Apr 20:26:45 20:29:10 18° 11° (N) 20:31:35 145.800 FM
Oscar 11 18 Apr 20:54:20 20:56:11 13° 62° (ENE) 20:58:02 145.825 FM, Beacon 2401.500 USB
STRAND 1 18 Apr 20:55:26 20:59:59 34° 292° (WNW) 21:04:32 ?
Saudisat 1A 18 Apr 21:25:52 21:29:51 34° 245° (WSW) 21:33:46 436.775 MHz
ISS 18 Apr 22:03:11 22:06:29 53° 30° (NNE) 22:09:47 145.800 FM
HO-68 18 Apr 22:11:27 22:18:20 51° 259° (W) 22:25:17 435.675 MHz FM
FUNcube-1 18 Apr 22:16:05 22:19:41 28° 69° (ENE) 22:23:16 145.950 - 145.970 MHz USB
Oscar 11 18 Apr 22:27:34 22:31:50 65° 259° (W) 22:36:09 145.825 FM, Beacon 2401.500 USB
MaSat-1 18 Apr 22:47:17 22:50:00 35° 298° (WNW) 22:52:27 437.345 MHz
ISS 18 Apr 23:40:28 23:43:00 20° 227° (SW) 23:45:30 145.800 FM
FUNcube-1 18 Apr 23:52:40 23:56:06 24° 265° (W) 23:59:31 145.950 - 145.970 MHz USB
SO-50 18 Apr 23:54:01 23:57:43 23° 44° (NE) 00:01:27 436.795 FM
Sapphire 18 Apr 23:55:26 23:57:24 12° 102° (ESE) 23:59:21 437.095 MHz 1200 baud AX-25 AFSK
PCSat 19 Apr 00:37:07 00:41:51 32° 110° (ESE) 00:46:37 145.825 MHz
Oscar 10/S400 19 Apr 01:31:51 01:42:09 14° 127° (SE) 01:56:42 145.825 - 145.975 CW/USB, Beacon 145.810 USB
SO-50 19 Apr 01:34:02 01:38:34 52° 242° (WSW) 01:43:08 436.795 FM
Sapphire 19 Apr 01:34:34 01:39:59 90° 293° (WNW) 01:45:26 437.095 MHz 1200 baud AX-25 AFSK
Oscar 19 19 Apr 01:57:01 02:00:55 21° 93° (E) 02:04:48 437.125 CW, 437.150 USB
Oscar 16 19 Apr 02:04:50 02:09:13 27° 95° (E) 02:13:33 437.025 USB, Beacon 2401.1428
OPAL 19 Apr 02:16:53 02:21:25 35° 65° (ENE) 02:26:02 ?
PCSat 19 Apr 02:20:08 02:25:10 38° 308° (NW) 02:30:14 145.825 MHz
UOSAT-12 19 Apr 02:20:31 02:24:48 33° 47° (NE) 02:29:03 437.025 FM, 437.400 FM
AO-40 19 Apr 02:27:38 09:32:52 35° 181° (S) 14:48:35 Beacon 2401.320
Uribyol 2 19 Apr 02:38:54 02:43:22 29° 96° (E) 02:47:48 436.500 FM
KITSAT 1 19 Apr 03:01:17 03:08:55 48° 111° (ESE) 03:16:35 435.175 FM
Gurwin Techsat 1B 19 Apr 03:08:50 03:12:11 17° 91° (E) 03:15:31 435.225 FM
AO-27 19 Apr 03:18:22 03:23:31 65° 102° (ESE) 03:28:39 436.795 MHz FM
Sapphire 19 Apr 03:20:41 03:24:11 17° 319° (NW) 03:27:43 437.095 MHz 1200 baud AX-25 AFSK
ITAMSAT 1 19 Apr 03:29:12 03:34:24 80° 104° (ESE) 03:39:35 435.822 SSB
Oscar 19 19 Apr 03:35:31 03:40:31 48° 289° (WNW) 03:45:29 437.125 CW, 437.150 USB
AO-Echo 19 Apr 03:41:59 03:46:49 87° 104° (ESE) 03:51:31 ?
Oscar 16 19 Apr 03:43:51 03:48:38 38° 291° (WNW) 03:53:25 437.025 USB, Beacon 2401.1428
OPAL 19 Apr 03:56:01 04:00:20 29° 263° (W) 04:04:43 ?
TMSAT-1 19 Apr 03:56:20 04:01:05 33° 96° (E) 04:05:49 436.925 FM
UOSAT-12 19 Apr 04:00:43 04:04:56 33° 245° (WSW) 04:09:07 437.025 FM, 437.400 FM
Uosat F 19 Apr 04:02:05 04:04:05 12° 89° (E) 04:06:04 435.120 FM
Uribyol 2 19 Apr 04:18:11 04:22:52 36° 292° (WNW) 04:27:32 436.500 FM
Gurwin Techsat 1B 19 Apr 04:47:20 04:52:35 62° 287° (WNW) 04:57:48 435.225 FM
AO-7 19 Apr 04:53:00 05:00:11 31° 96° (E) 05:07:20 29.400 - 29.500 MHz
KITSAT 1 19 Apr 04:56:42 05:04:22 44° 312° (NW) 05:12:06 435.175 FM
AO-27 19 Apr 04:59:13 05:02:30 17° 299° (WNW) 05:05:48 436.795 MHz FM
ITAMSAT 1 19 Apr 05:10:35 05:13:13 14° 301° (WNW) 05:15:52 435.822 SSB
RS-15 19 Apr 05:15:28 05:18:50 12° 95° (E) 05:22:11 29.354 - 29.394 USB, Beacon 29.352 USB
AO-Echo 19 Apr 05:23:26 05:24:49 11° 302° (WNW) 05:26:12 ?
JAS-1B 19 Apr 05:25:48 05:31:30 89° 104° (ESE) 05:37:24 435.800 - 435.900 CW/SSB
TMSAT-1 19 Apr 05:36:18 05:40:57 32° 293° (WNW) 05:45:36 436.925 FM
Uosat F 19 Apr 05:38:25 05:43:26 76° 286° (WNW) 05:48:24 435.120 FM
STRAND 1 19 Apr 06:32:37 06:37:28 45° 70° (ENE) 06:42:19 ?
AO-7 19 Apr 06:45:14 06:53:21 60° 294° (WNW) 07:01:28 29.400 - 29.500 MHz
KITSAT 1 19 Apr 06:57:36 07:02:15 16° 338° (NNW) 07:06:54 435.175 FM
Hamsat 19 Apr 07:04:35 07:08:40 39° 98° (E) 07:12:45 145.90 MHz
MaSat-1 19 Apr 07:09:41 07:12:22 32° 61° (ENE) 07:15:28 437.345 MHz
RS-15 19 Apr 07:17:44 07:28:50 63° 115° (ESE) 07:39:34 29.354 - 29.394 USB, Beacon 29.352 USB
JAS-1B 19 Apr 07:19:02 07:21:23 13° 304° (NW) 07:23:44 435.800 - 435.900 CW/SSB
JAS-2 19 Apr 07:29:21 07:33:44 25° 95° (E) 07:38:26 435.800 - 435.900 CW/SSB, 435.910 FM
STRAND 1 19 Apr 08:12:54 08:16:50 22° 266° (W) 08:20:48 ?
Sapphire 19 Apr 08:40:12 08:43:21 15° 39° (NE) 08:46:29 437.095 MHz 1200 baud AX-25 AFSK
AO-7 19 Apr 08:40:29 08:44:28 15° 316° (NW) 08:48:27 29.400 - 29.500 MHz
Hamsat 19 Apr 08:41:14 08:44:23 20° 294° (WNW) 08:47:33 145.90 MHz
SO-67 19 Apr 08:43:39 08:47:10 74° 283° (WNW) 08:50:39 435.3500 MHz FM
MaSat-1 19 Apr 08:49:22 08:50:39 12° 251° (WSW) 08:52:01 437.345 MHz
KITSAT 1 19 Apr 08:58:40 09:01:54 13° 10° (N) 09:05:08 435.175 FM
JAS-2 19 Apr 09:13:57 09:19:00 44° 290° (WNW) 09:24:30 435.800 - 435.900 CW/SSB, 435.910 FM
PCSat 19 Apr 09:24:12 09:29:00 31° 49° (NE) 09:33:46 145.825 MHz
RS-15 19 Apr 09:31:10 09:41:42 44° 319° (NW) 09:52:02 29.354 - 29.394 USB, Beacon 29.352 USB
HO-68 19 Apr 09:38:46 09:45:01 31° 96° (E) 09:51:14 435.675 MHz FM
Oscar 11 19 Apr 10:15:30 10:18:53 22° 94° (E) 10:22:16 145.825 FM, Beacon 2401.500 USB
Sapphire 19 Apr 10:22:14 10:27:41 78° 60° (ENE) 10:33:05 437.095 MHz 1200 baud AX-25 AFSK
KITSAT 1 19 Apr 10:53:49 11:00:39 29° 39° (NE) 11:07:26 435.175 FM
PANSAT 19 Apr 10:55:25 10:56:27 11° 179° (S) 10:57:29 not established
PCSat 19 Apr 11:07:27 11:12:32 42° 248° (WSW) 11:17:35 145.825 MHz
HO-68 19 Apr 11:26:03 11:32:57 52° 293° (WNW) 11:39:50 435.675 MHz FM
Saudisat 1A 19 Apr 11:32:14 11:36:35 55° 119° (ESE) 11:40:58 436.775 MHz
FUNcube-1 19 Apr 11:40:20 11:44:33 58° 101° (E) 11:48:49 145.950 - 145.970 MHz USB
RS-15 19 Apr 11:49:57 11:57:58 22° 352° (N) 12:05:57 29.354 - 29.394 USB, Beacon 29.352 USB
Oscar 11 19 Apr 11:51:13 11:55:09 34° 290° (WNW) 11:59:05 145.825 FM, Beacon 2401.500 USB
Sapphire 19 Apr 12:07:35 12:10:24 14° 257° (WSW) 12:13:12 437.095 MHz 1200 baud AX-25 AFSK
KITSAT 1 19 Apr 12:48:51 12:56:59 82° 241° (WSW) 13:05:02 435.175 FM
AO-27 19 Apr 13:00:44 13:03:21 14° 59° (ENE) 13:05:58 436.795 MHz FM
ITAMSAT 1 19 Apr 13:10:44 13:13:58 17° 61° (ENE) 13:17:13 435.822 SSB
Saudisat 1A 19 Apr 13:13:09 13:16:31 21° 318° (NW) 13:19:55 436.775 MHz
Oscar 19 19 Apr 13:14:12 13:18:43 32° 67° (ENE) 13:23:15 437.125 CW, 437.150 USB
HO-68 19 Apr 13:17:51 13:19:02 10° 314° (NW) 13:20:13 435.675 MHz FM
FUNcube-1 19 Apr 13:18:25 13:20:31 14° 297° (WNW) 13:22:38 145.950 - 145.970 MHz USB
AO-Echo 19 Apr 13:18:49 13:21:53 16° 61° (ENE) 13:24:54 ?
Oscar 16 19 Apr 13:22:09 13:26:55 40° 69° (ENE) 13:31:43 437.025 USB, Beacon 2401.1428
Uribyol 2 19 Apr 13:57:08 14:02:01 45° 70° (ENE) 14:06:56 436.500 FM
RS-15 19 Apr 14:06:03 14:15:17 30° 27° (NNE) 14:24:32 29.354 - 29.394 USB, Beacon 29.352 USB
AO-7 19 Apr 14:08:03 14:09:23 10° 40° (NE) 14:10:43 29.400 - 29.500 MHz
JAS-1B 19 Apr 14:23:52 14:27:58 16° 58° (ENE) 14:31:44 435.800 - 435.900 CW/SSB
Oscar 10/S400 19 Apr 14:29:34 15:43:25 20° 268° (W) 17:57:38 145.825 - 145.975 CW/USB, Beacon 145.810 USB
Gurwin Techsat 1B 19 Apr 14:30:01 14:34:29 28° 66° (ENE) 14:38:58 435.225 FM
AO-27 19 Apr 14:36:59 14:42:11 81° 256° (WSW) 14:47:24 436.795 MHz FM
KITSAT 1 19 Apr 14:46:37 14:51:07 16° 260° (W) 14:55:38 435.175 FM
ITAMSAT 1 19 Apr 14:47:46 14:52:55 66° 258° (WSW) 14:58:05 435.822 SSB
ISS 19 Apr 14:47:47 14:49:25 13° 130° (SE) 14:51:02 145.800 FM
Oscar 19 19 Apr 14:53:27 14:58:00 32° 264° (W) 15:02:36 437.125 CW, 437.150 USB
AO-Echo 19 Apr 14:54:51 15:00:06 71° 258° (WSW) 15:05:14 ?
Oscar 16 19 Apr 15:02:13 15:06:24 25° 266° (W) 15:10:36 437.025 USB, Beacon 2401.1428
Uosat F 19 Apr 15:15:11 15:18:45 20° 63° (ENE) 15:22:19 435.120 FM
TMSAT-1 19 Apr 15:17:25 15:22:32 53° 71° (ENE) 15:27:41 436.925 FM
Uribyol 2 19 Apr 15:37:43 15:41:42 22° 266° (W) 15:45:42 436.500 FM
SO-50 19 Apr 15:49:28 15:53:44 46° 117° (ESE) 15:58:03 436.795 FM
AO-7 19 Apr 15:52:21 16:00:03 45° 62° (ENE) 16:07:46 29.400 - 29.500 MHz
OPAL 19 Apr 16:04:25 16:09:39 72° 105° (ESE) 16:14:51 ?
Gurwin Techsat 1B 19 Apr 16:09:23 16:14:17 38° 263° (W) 16:19:14 435.225 FM
JAS-1B 19 Apr 16:09:41 16:17:51 81° 74° (ENE) 16:24:39 435.800 - 435.900 CW/SSB
RS-15 19 Apr 16:18:39 16:29:39 79° 55° (NE) 16:40:54 29.354 - 29.394 USB, Beacon 29.352 USB
ISS 19 Apr 16:22:23 16:25:44 77° 326° (NW) 16:29:06 145.800 FM
Uosat F 19 Apr 16:52:15 16:57:09 52° 260° (W) 17:02:04 435.120 FM
TMSAT-1 19 Apr 16:59:00 17:02:47 20° 268° (W) 17:06:34 436.925 FM
SO-50 19 Apr 17:30:53 17:34:31 24° 316° (NW) 17:38:11 436.795 FM
OPAL 19 Apr 17:44:44 17:47:57 17° 302° (WNW) 17:51:09 ?
AO-7 19 Apr 17:45:06 17:52:50 43° 261° (W) 18:00:37 29.400 - 29.500 MHz
JAS-2 19 Apr 17:46:30 17:47:48 11° 58° (ENE) 17:49:05 435.800 - 435.900 CW/SSB, 435.910 FM
Hamsat 19 Apr 17:58:48 18:02:26 29° 69° (ENE) 18:06:07 145.90 MHz
ISS 19 Apr 18:00:18 18:02:54 20° 345° (NNW) 18:05:31 145.800 FM
JAS-1B 19 Apr 18:03:33 18:08:51 19° 267° (W) 18:13:41 435.800 - 435.900 CW/SSB
UOSAT-12 19 Apr 18:11:40 18:16:11 68° 120° (ESE) 18:20:49 437.025 FM, 437.400 FM
RS-15 19 Apr 18:32:10 18:40:51 29° 256° (WSW) 18:49:47 29.354 - 29.394 USB, Beacon 29.352 USB
STRAND 1 19 Apr 18:44:22 18:47:02 14° 90° (E) 18:49:42 ?
SO-67 19 Apr 19:17:49 19:21:03 36° 73° (ENE) 19:24:18 435.3500 MHz FM
JAS-2 19 Apr 19:26:19 19:32:11 79° 75° (ENE) 19:37:32 435.800 - 435.900 CW/SSB, 435.910 FM
Hamsat 19 Apr 19:35:01 19:38:25 24° 266° (W) 19:41:52 145.90 MHz
ISS 19 Apr 19:38:21 19:40:34 16° 6° (N) 19:42:48 145.800 FM
UOSAT-12 19 Apr 19:53:33 19:56:50 19° 320° (NW) 20:00:09 437.025 FM, 437.400 FM
Saudisat 1A 19 Apr 19:58:47 20:03:06 50° 52° (NE) 20:07:21 436.775 MHz
